Temp
45 41 36 40 41 41 41 37 35 39 39 34 38 41 45 45 42 41 43 43 44 44 46 45 44 43 42 42 42 42 42 43 42 41 40 39 38 39 38 39 40 40 40 40
39 35 38 41 41 39 38 34 34 36 38 34 37 36 43 47 45 43 43 43 44 44 43 43 41 41 40 40 41 42 43 42 42 40 39 39 38 38 38 39 39 40 39 39
36 35 39 38 34 36 34 31 31 29 34 36 32 32 38 41 43 46 46 46 46 45 43 39 39 38 38 38 39 41 41 42 41 41 40 39 39 38 37 37 36 38 39 38
33 35 34 31 33 32 31 31 32 32 30 26 30 23 37 39 41 42 43 43 44 45 46 43 40 38 38 38 39 40 41 40 41 41 40 39 36 34 35 36 36 36 38 38
27 28 30 31 29 31 29 32 30 29 27 26 25 24 33 38 38 37 38 42 43 45 45 43 42 42 41 40 38 38 39 39 40 39 40 37 35 35 36 36 35 36 36 37
28 33 31 28 31 31 33 29 28 27 28 15 24 25 27 33 34 37 41 42 44 41 44 44 44 43 40 39 38 37 38 38 39 38 38 37 36 35 33 34 33 33 34 34
29 27 29 31 29 30 29 26 20 17 15 18 25 22 26 35 36 35 37 39 40 42 42 42 41 39 40 37 36 37 37 37 37 37 37 38 37 36 35 34 33 33 32 32
24 21 27 30 27 27 28 25 20 12 17 22 26 22 28 36 36 37 38 37 38 39 42 41 42 40 39 37 36 37 36 36 37 37 36 37 37 35 35 35 34 33 32 32
23 23 27 29 29 28 25 19 24 15 13 14 25 28 31 34 34 36 34 36 34 35 39 42 42 40 39 38 37 37 36 36 37 36 36 36 36 35 34 35 35 33 34 37
29 16 27 27 28 27 24 27 20 18 7 7 24 22 23 31 35 37 35 34 35 34 35 40 41 41 41 40 39 38 38 37 37 36 36 37 35 35 35 34 33 33 33 34
24 25 21 25 20 24 21 20 21 22 19 14 14 20 28 33 37 36 35 35 35 36 37 38 40 41 41 40 40 38 38 37 36 36 36 35 35 34 34 32 32 32 33 32
27 24 15 19 23 25 23 23 24 17 14 16 17 16 36 37 37 37 35 37 35 34 37 37 38 39 39 39 39 39 38 37 36 37 36 35 35 34 32 32 32 32 31 32
23 21 11 18 19 20 14 25 28 24 22 14 11 19 37 34 33 36 36 36 36 35 34 38 37 37 38 38 38 38 37 36 37 36 35 34 34 33 32 32 32 32 27 27
32 19 19 20 22 18 11 15 25 16 10 18 24 26 30 33 33 35 34 34 32 34 36 36 35 35 37 37 37 37 37 36 35 35 34 33 33 33 33 32 32 31 29 26
24 15 14 16 22 20 15 11 19 15 22 18 29 30 32 34 29 32 32 32 32 33 34 34 34 34 35 35 35 35 36 35 35 33 32 31 32 33 33 32 32 31 30 29
16 13 9 12 23 23 12 15 16 23 24 24 27 27 36 29 32 32 33 32 32 32 32 32 33 32 34 34 34 34 33 32 32 31 31 32 32 32 31 31 31 31 30 29
15 11 10 9 22 20 12 15 18 20 16 24 20 30 32 27 31 28 28 29 29 30 31 31 31 33 33 31 33 31 31 30 30 30 31 31 31 31 30 31 30 30 29 29
15 13 13 8 7 5 21 23 19 24 25 26 23 25 24 25 26 27 26 24 28 29 29 29 29 30 30 30 31 31 31 30 30 30 29 28 28 27 28 26 26 25 26 22
18 16 9 7 4 19 23 19 15 15 19 26 27 30 24 21 21 20 26 28 26 25 27 27 26 25 25 26 28 27 24 23 23 21 23 22 23 22 22 22 19 18 19 18
20 15 13 4 4 6 16 20 22 20 15 18 27 27 25 21 16 14 20 25 24 24 24 23 22 21 21 23 25 21 17 16 14 16 17 19 18 20 17 18 19 18 15 19
5 6 8 8 5 15 20 22 21 12 17 20 23 23 22 19 16 19 22 21 22 21 23 21 19 16 16 20 22 17 13 9 12 12 14 16 16 17 18 18 16 15 15 17
10 10 5 6 3 8 23 22 21 20 17 21 21 21 22 21 21 20 19 18 19 17 18 20 16 13 12 13 16 12 9 9 8 9 10 10 11 15 18 15 16 14 14 16
13 18 14 18 17 17 26 23 22 20 18 21 21 22 24 23 21 20 16 14 11 13 16 17 14 10 4 7 9 9 7 6 5 4 4 5 9 14 16 14 14 14 15 17
14 17 15 18 15 17 21 22 21 22 21 22 22 21 23 20 21 18 17 17 15 14 11 13 13 9 6 7 8 7 5 3 -0 1 4 7 9 10 11 13 14 14 13 14
18 19 13 16 21 23 22 23 22 21 20 19 19 20 19 19 19 17 15 14 13 12 11 10 9 8 6 6 4 3 3 2 2 2 3 4 6 5 8 10 11 13 13 17
18 18 18 19 24 24 21 22 23 19 17 16 15 13 15 16 14 14 10 10 9 8 7 6 6 4 3 3 3 1 1 1 -2 0 2 3 4 4 7 7 7 14 17 19
MSLP
1018.54 1018.82 1019.24 1019.43 1019.39 1019.12 1018.85 1019.18 1019.66 1020.46 1021.43 1021.68 1021.05 1020.37 1019.74 1019.85 1020.49 1021.09 1021.64 1022.10 1022.81 1023.49 1024.22 1025.20 1026.22 1026.97 1027.35 1027.63 1027.97 1028.23 1028.44 1028.54 1028.58 1028.59 1028.76 1029.10 1029.41 1029.66 1029.82 1029.92 1029.85 1029.75 1029.69 1029.50
1019.79 1020.31 1021.00 1020.98 1020.65 1020.17 1020.00 1020.18 1020.56 1021.26 1021.76 1022.01 1021.17 1020.03 1019.04 1018.84 1018.91 1019.70 1020.55 1021.24 1021.91 1022.76 1023.86 1024.97 1025.97 1026.79 1027.32 1027.60 1027.72 1027.97 1028.26 1028.47 1028.63 1028.90 1029.11 1029.27 1029.61 1029.90 1029.96 1030.09 1030.26 1030.19 1030.17 1030.03
1020.92 1022.41 1022.33 1022.09 1021.86 1021.54 1021.57 1021.65 1021.77 1022.19 1022.07 1021.81 1021.61 1020.07 1018.54 1018.12 1018.09 1018.47 1019.42 1020.28 1020.94 1021.88 1023.17 1024.66 1025.82 1026.85 1027.57 1027.86 1027.93 1028.06 1028.36 1028.66 1028.88 1029.07 1029.31 1029.45 1029.63 1029.81 1030.18 1030.47 1030.79 1030.74 1030.56 1030.46
1022.88 1023.63 1023.35 1023.21 1023.30 1023.25 1023.27 1023.22 1022.98 1022.84 1022.65 1022.46 1021.81 1020.80 1018.82 1018.44 1018.50 1018.86 1019.35 1019.85 1020.55 1021.26 1022.31 1023.70 1025.03 1026.25 1027.13 1027.83 1028.09 1028.25 1028.52 1028.82 1029.04 1029.12 1029.37 1029.53 1029.78 1030.20 1030.48 1030.72 1030.86 1030.97 1030.81 1030.77
1024.41 1024.67 1024.52 1024.48 1024.88 1024.54 1024.42 1024.08 1023.81 1023.66 1023.37 1022.93 1022.31 1021.77 1019.36 1018.73 1018.96 1019.22 1019.43 1019.70 1020.12 1020.64 1021.56 1022.82 1024.02 1025.21 1026.22 1027.05 1027.65 1028.22 1028.75 1029.00 1029.23 1029.31 1029.43 1029.64 1030.03 1030.25 1030.46 1030.71 1030.82 1030.81 1030.91 1030.90
1025.17 1025.63 1025.68 1025.81 1025.75 1025.36 1025.08 1024.81 1024.52 1024.33 1024.16 1023.89 1022.81 1022.04 1020.29 1019.67 1019.64 1019.64 1019.76 1020.04 1020.43 1020.58 1021.15 1022.13 1023.54 1024.73 1025.80 1026.51 1027.09 1027.73 1028.23 1028.82 1029.24 1029.44 1029.57 1029.76 1030.10 1030.37 1030.64 1030.72 1030.86 1030.94 1030.98 1031.11
1025.67 1026.21 1026.52 1026.53 1026.32 1026.05 1025.69 1025.30 1025.64 1025.86 1025.48 1024.73 1023.67 1023.04 1020.55 1019.99 1020.12 1020.39 1020.65 1020.91 1021.15 1021.17 1021.44 1022.33 1023.37 1024.50 1025.53 1026.57 1027.36 1027.67 1027.93 1028.44 1028.84 1029.22 1029.48 1029.69 1029.95 1030.21 1030.49 1030.70 1030.84 1030.97 1031.07 1031.28
1025.21 1026.79 1026.94 1027.08 1026.88 1026.53 1026.19 1025.89 1025.91 1026.47 1026.49 1025.47 1024.29 1022.63 1020.63 1020.21 1020.37 1020.68 1020.82 1021.04 1021.45 1021.49 1021.70 1022.39 1023.08 1024.22 1025.33 1026.10 1026.93 1027.49 1027.96 1028.26 1028.48 1028.83 1029.21 1029.52 1029.81 1030.13 1030.39 1030.58 1030.73 1030.97 1031.13 1031.41
1024.45 1026.57 1027.53 1027.70 1027.60 1027.47 1027.05 1026.93 1026.73 1026.96 1027.57 1026.47 1023.82 1021.95 1021.15 1020.65 1020.69 1021.02 1021.16 1021.20 1021.53 1021.79 1021.99 1022.39 1023.04 1024.08 1025.06 1025.85 1026.59 1026.99 1027.37 1027.76 1028.09 1028.45 1028.88 1029.12 1029.53 1029.90 1030.15 1030.36 1030.52 1030.89 1030.97 1031.09
1023.85 1026.51 1028.01 1028.39 1028.26 1028.13 1027.88 1027.91 1027.58 1027.63 1028.38 1027.20 1024.37 1022.54 1021.10 1021.04 1020.87 1021.16 1021.45 1021.71 1021.76 1022.00 1022.14 1022.39 1022.71 1023.32 1023.96 1025.03 1026.00 1026.48 1026.91 1027.30 1027.58 1028.06 1028.51 1028.93 1029.25 1029.52 1029.82 1030.11 1030.56 1030.70 1030.83 1031.03
1024.19 1025.21 1028.86 1028.86 1028.51 1028.19 1028.67 1028.35 1028.19 1028.12 1027.91 1027.27 1025.56 1022.83 1020.28 1020.02 1020.15 1020.83 1021.43 1021.64 1021.78 1021.99 1022.36 1022.61 1022.66 1022.96 1023.20 1023.61 1024.59 1025.50 1026.31 1026.90 1027.19 1027.47 1027.92 1028.37 1028.87 1029.30 1029.61 1029.96 1030.25 1030.40 1030.52 1030.78
1024.67 1025.72 1028.11 1028.58 1028.62 1028.77 1028.66 1028.22 1027.83 1028.18 1028.21 1027.57 1026.12 1022.80 1020.40 1020.12 1020.29 1020.75 1021.47 1021.69 1022.02 1022.21 1022.45 1022.56 1022.74 1022.94 1023.30 1023.73 1024.41 1025.11 1025.70 1026.14 1026.55 1027.08 1027.73 1028.24 1028.68 1029.04 1029.47 1029.75 1029.96 1030.09 1030.34 1030.45
1024.74 1026.02 1028.04 1029.00 1029.49 1029.51 1029.27 1028.48 1027.96 1028.03 1027.68 1027.07 1026.15 1022.54 1020.58 1020.41 1020.80 1021.04 1021.38 1021.66 1021.99 1022.04 1022.32 1022.58 1022.80 1023.01 1023.17 1023.56 1024.17 1024.94 1025.61 1025.97 1026.41 1026.78 1027.37 1027.89 1028.32 1028.71 1029.04 1029.28 1029.53 1029.80 1030.26 1030.46
1025.11 1025.99 1026.63 1027.14 1027.14 1027.54 1028.86 1028.23 1028.03 1028.17 1027.89 1026.16 1023.28 1021.95 1020.93 1020.67 1020.91 1021.08 1021.45 1021.68 1021.87 1022.13 1022.26 1022.64 1022.87 1023.21 1023.32 1023.40 1023.71 1024.36 1025.09 1025.66 1026.15 1026.55 1027.13 1027.66 1028.01 1028.23 1028.48 1028.81 1029.04 1029.33 1029.69 1030.13
1026.17 1027.08 1027.27 1027.28 1027.08 1027.52 1027.76 1027.54 1027.63 1027.68 1026.12 1025.05 1022.12 1021.11 1021.27 1020.66 1020.74 1020.95 1021.28 1021.82 1022.17 1022.20 1022.58 1022.80 1023.19 1023.34 1023.53 1023.69 1023.97 1024.49 1025.07 1025.42 1025.97 1026.60 1026.99 1027.38 1027.66 1027.90 1028.19 1028.51 1028.74 1028.85 1029.16 1029.43
1027.16 1027.83 1028.13 1027.98 1027.46 1027.64 1027.89 1027.31 1027.25 1026.47 1025.69 1024.35 1022.35 1020.52 1020.52 1020.65 1020.97 1021.45 1021.95 1022.48 1023.01 1023.17 1023.33 1023.47 1023.29 1023.29 1023.61 1023.92 1024.10 1024.63 1025.29 1025.75 1026.20 1026.78 1027.08 1027.21 1027.48 1027.79 1028.04 1028.33 1028.53 1028.75 1028.97 1029.14
1027.41 1028.04 1028.89 1028.75 1028.12 1027.75 1026.93 1025.44 1025.20 1024.96 1024.01 1022.85 1022.53 1019.64 1020.46 1021.28 1021.87 1022.47 1022.93 1023.49 1023.91 1024.17 1024.27 1024.17 1024.17 1023.96 1024.00 1024.24 1024.43 1025.06 1025.54 1025.91 1026.63 1027.13 1027.09 1027.25 1027.55 1027.92 1028.24 1028.47 1028.67 1028.82 1028.98 1029.08
1027.29 1028.21 1028.51 1029.25 1029.04 1027.28 1023.15 1022.72 1023.34 1023.32 1022.67 1022.43 1021.32 1020.94 1021.27 1022.03 1022.76 1023.28 1023.96 1024.46 1024.71 1024.84 1025.14 1025.26 1025.18 1025.15 1025.12 1025.02 1025.28 1025.67 1026.02 1026.72 1027.31 1027.76 1027.94 1028.09 1028.21 1028.51 1028.67 1028.83 1028.95 1029.08 1029.19 1029.18
1027.39 1027.68 1028.84 1029.17 1028.29 1024.73 1022.56 1022.98 1023.39 1023.85 1021.69 1021.12 1021.06 1020.87 1022.05 1022.77 1023.22 1024.44 1024.91 1025.28 1025.56 1025.73 1026.12 1026.33 1026.62 1026.89 1026.89 1026.73 1026.75 1027.22 1027.78 1028.20 1028.84 1029.38 1029.49 1029.64 1029.56 1029.53 1029.56 1029.60 1029.60 1029.54 1029.40 1029.24
1028.01 1027.89 1028.19 1029.09 1027.81 1025.16 1022.64 1021.88 1021.77 1022.28 1022.02 1020.56 1020.65 1021.21 1022.15 1023.32 1024.65 1025.21 1025.60 1026.12 1026.73 1026.81 1027.11 1027.68 1028.11 1028.21 1028.65 1028.69 1028.51 1028.82 1029.79 1030.26 1030.76 1031.12 1031.11 1030.86 1030.61 1030.41 1030.27 1030.13 1029.98 1029.78 1029.63 1029.35
1028.26 1028.45 1027.82 1027.56 1026.52 1023.41 1021.37 1021.76 1022.43 1022.87 1022.11 1021.48 1021.21 1021.64 1022.53 1023.90 1024.63 1025.51 1026.44 1027.22 1027.71 1027.95 1028.07 1028.81 1029.22 1029.96 1030.34 1030.24 1030.07 1030.50 1031.29 1031.96 1032.31 1032.18 1031.87 1031.52 1031.24 1030.99 1030.66 1030.38 1030.19 1029.92 1029.61 1029.33
1024.84 1026.16 1026.52 1026.66 1026.02 1023.26 1020.87 1022.14 1022.36 1021.80 1021.91 1022.39 1022.42 1022.67 1023.30 1024.32 1025.40 1026.55 1027.56 1028.11 1028.75 1029.16 1029.30 1029.64 1030.19 1031.19 1031.81 1031.74 1031.35 1031.92 1032.59 1033.24 1033.05 1032.76 1032.41 1032.12 1031.74 1031.39 1031.00 1030.71 1030.38 1030.03 1029.72 1029.36
1022.84 1021.68 1022.60 1022.50 1021.41 1020.46 1020.39 1020.81 1021.19 1021.68 1022.47 1023.06 1023.41 1023.75 1024.15 1024.97 1025.89 1027.17 1028.30 1029.11 1029.80 1030.37 1030.78 1031.03 1031.49 1032.32 1032.60 1032.66 1032.86 1032.99 1033.73 1033.76 1033.56 1033.26 1032.88 1032.49 1032.09 1031.70 1031.33 1030.94 1030.63 1030.29 1029.81 1029.37
1021.03 1020.64 1020.96 1021.32 1020.64 1020.50 1020.91 1021.50 1021.88 1022.31 1023.26 1024.21 1024.47 1024.76 1025.02 1025.74 1026.63 1027.88 1028.91 1029.74 1030.59 1031.37 1031.87 1032.06 1032.23 1032.81 1033.44 1033.64 1033.93 1034.11 1034.39 1034.29 1034.00 1033.77 1033.36 1032.85 1032.44 1032.10 1031.74 1031.36 1030.81 1030.31 1029.98 1029.44
1019.85 1020.30 1020.96 1020.97 1020.84 1021.06 1021.32 1021.77 1022.66 1023.56 1024.27 1025.43 1025.96 1026.19 1026.59 1027.03 1027.87 1028.69 1029.81 1030.73 1031.53 1032.15 1032.74 1033.06 1033.45 1033.96 1034.48 1034.68 1034.87 1035.00 1035.03 1034.88 1034.59 1034.19 1033.76 1033.41 1033.02 1032.54 1032.02 1031.56 1030.99 1030.39 1029.99 1029.41
1019.33 1019.50 1020.21 1020.31 1020.07 1020.57 1021.67 1022.22 1023.17 1024.21 1025.22 1026.26 1027.03 1027.99 1028.46 1028.80 1029.57 1030.33 1031.33 1032.10 1032.68 1033.25 1033.83 1034.11 1034.56 1034.98 1035.44 1035.73 1035.92 1035.91 1035.75 1035.63 1035.46 1034.89 1034.40 1033.93 1033.35 1032.91 1032.27 1031.69 1030.90 1030.58 1029.82 1029.16
Wind_Speed
1 3 2 7 6 3 4 2 1 5 2 2 7 10 9 8 9 8 8 7 9 9 10 9 8 7 7 6 6 6 5 3 2 0 3 4 3 4 4 4 6 6 6 7
2 1 5 4 4 1 0 1 0 4 2 1 6 14 11 10 9 11 11 9 9 9 9 11 9 8 7 7 7 5 6 4 3 3 2 3 4 3 3 4 5 6 6 7
1 4 3 2 2 3 4 3 4 2 4 4 6 6 3 1 3 1 8 7 6 11 11 11 9 8 6 7 7 6 6 5 4 5 3 2 2 1 3 4 3 4 5 6
6 2 1 2 5 4 4 3 0 2 5 2 2 5 5 4 5 4 3 7 8 8 9 12 11 10 9 6 6 6 6 5 4 3 2 1 2 4 1 3 2 3 5 5
2 1 1 2 3 4 3 1 3 2 3 4 3 4 5 1 6 4 4 6 7 8 10 11 14 12 9 9 8 7 7 6 5 2 4 3 4 3 2 2 3 3 3 5
4 1 4 3 2 3 4 2 2 1 1 3 3 4 4 3 1 2 4 6 5 4 8 10 11 11 8 8 9 8 9 7 6 5 2 3 6 4 3 1 2 2 2 3
3 2 2 2 3 0 2 1 2 5 4 4 2 2 10 1 4 3 5 6 7 9 5 8 10 9 9 9 8 7 9 8 8 7 6 4 5 2 4 2 2 2 2 2
7 3 3 1 3 1 4 2 5 7 4 1 1 6 8 4 3 2 3 3 2 4 1 7 9 9 9 10 9 8 8 8 9 8 7 6 5 3 2 2 2 1 2 2
5 3 3 5 3 3 3 2 1 7 3 4 6 5 5 5 4 4 4 3 4 3 2 7 8 9 8 9 10 9 9 8 8 9 7 7 6 4 4 4 3 2 2 2
3 6 2 2 2 2 2 3 3 2 2 4 6 4 7 7 8 7 6 5 5 3 2 3 7 10 9 10 9 9 8 9 8 8 7 6 7 6 5 4 4 3 3 3
2 5 1 2 6 6 2 2 0 2 4 5 2 8 5 9 9 9 7 4 5 5 4 5 7 8 10 10 12 10 9 10 8 8 8 7 7 7 6 5 4 4 3 4
3 6 4 3 4 4 2 2 5 6 6 1 1 9 4 8 5 9 7 6 4 2 4 6 6 6 7 8 8 9 8 9 8 7 7 7 7 7 6 5 5 5 5 3
5 2 4 3 2 4 3 5 3 4 2 6 7 8 3 5 5 6 7 6 5 2 3 2 3 5 6 8 8 8 7 7 7 7 8 7 7 7 7 7 6 6 5 4
3 2 6 8 5 6 6 6 10 6 4 4 11 6 4 7 7 6 6 4 1 3 3 2 2 5 5 6 8 8 8 7 7 7 7 7 7 7 7 6 6 6 6 5
3 5 2 2 4 2 5 6 12 9 12 10 7 19 11 9 2 3 2 3 2 3 4 5 2 3 4 4 5 6 6 7 7 7 7 7 7 7 6 6 6 5 6 6
2 3 3 4 5 6 6 6 11 19 11 17 20 22 7 3 6 5 6 7 6 6 5 6 5 3 4 4 5 5 5 6 5 6 6 6 6 6 6 5 5 5 5 5
7 7 4 5 1 2 11 18 21 10 8 14 13 14 7 5 7 5 5 5 5 5 5 6 5 1 1 2 5 5 5 5 5 4 4 5 5 4 4 3 3 4 5 5
7 5 3 3 2 4 6 0 6 17 7 19 8 5 5 6 6 8 6 2 4 6 6 7 7 8 8 5 5 5 5 5 4 4 5 6 6 5 5 4 3 3 3 3
3 4 3 6 5 8 4 7 10 12 14 19 20 20 5 4 5 3 4 5 7 7 6 8 9 10 12 12 9 11 12 11 10 10 9 9 8 6 5 5 4 4 3 4
3 3 4 3 6 11 5 4 6 5 10 5 15 11 9 6 5 4 4 7 8 8 9 9 11 11 12 12 10 12 11 10 10 9 8 7 6 6 5 4 5 3 3 5
4 1 7 4 4 10 5 7 3 7 9 2 2 5 7 5 2 8 8 8 8 8 8 10 11 11 11 10 8 11 9 10 8 7 6 7 6 6 5 5 3 4 5 6
11 12 6 3 2 15 8 6 9 5 3 2 4 5 11 11 10 9 8 9 9 9 9 9 10 10 10 10 8 9 10 7 6 7 6 7 6 6 5 5 6 5 6 7
5 9 10 13 10 2 9 3 3 3 5 3 6 6 6 10 9 9 8 8 7 7 9 8 8 8 5 6 8 8 6 7 7 6 6 5 6 6 7 6 6 5 5 6
4 1 3 3 4 3 4 5 5 5 8 7 8 6 6 9 10 11 9 7 7 7 7 6 7 7 8 7 9 7 7 6 5 5 6 6 6 8 6 5 5 5 4 6
3 8 7 4 1 3 2 5 9 10 11 10 8 8 7 9 9 9 8 8 7 8 7 7 8 8 8 7 6 7 8 7 7 6 5 5 5 5 7 6 5 6 5 8
5 7 6 5 3 3 3 7 11 11 10 9 11 10 10 9 9 10 9 8 7 7 7 7 8 7 8 8 8 8 7 7 7 8 6 6 6 6 6 7 8 12 16 18
Wind_Direction
305 189 166 74 40 15 358 32 291 110 109 304 247 269 255 194 199 218 223 223 190 183 171 152 151 154 157 151 151 150 135 145 204 329 89 72 69 70 57 57 33 37 22 17
142 93 56 31 12 324 131 260 345 87 98 239 314 287 272 239 207 197 192 214 200 173 151 150 153 163 179 169 168 150 127 129 60 66 35 69 103 76 100 85 49 32 30 23
124 60 41 305 122 111 40 358 45 34 299 229 294 282 192 39 30 105 169 187 210 176 169 157 161 168 186 179 170 159 137 119 100 101 91 67 44 81 61 56 65 31 34 32
70 2 274 218 81 353 146 12 80 321 352 325 194 283 338 122 148 123 124 184 208 204 168 160 163 168 179 188 164 152 141 134 127 180 174 146 114 105 96 105 81 82 50 38
168 146 156 128 51 327 134 300 38 345 305 38 161 92 242 139 80 76 97 190 214 210 175 165 168 171 174 166 161 161 156 154 136 159 131 107 96 120 125 112 117 106 91 66
89 275 27 75 129 358 156 168 173 276 325 31 88 122 274 135 102 339 39 27 21 235 174 158 161 158 166 158 157 163 162 160 160 152 163 122 131 152 133 110 112 121 111 89
172 67 99 309 125 29 303 165 61 9 12 225 70 84 241 61 56 358 335 354 5 342 157 150 146 155 159 158 164 171 165 170 164 170 172 156 139 129 120 146 97 43 66 61
153 262 173 337 18 168 205 75 153 188 189 217 305 230 252 126 78 61 31 84 333 337 118 158 159 158 163 160 170 181 174 175 168 176 180 173 156 162 151 136 104 99 84 90
129 93 97 27 335 23 179 216 41 98 27 50 223 258 28 130 183 138 110 126 82 28 7 167 164 158 165 164 181 182 174 185 176 177 178 174 170 175 174 162 155 183 136 159
169 95 349 102 272 124 67 311 99 352 133 271 271 244 217 208 173 149 104 87 114 92 350 205 180 171 171 171 177 180 184 191 176 173 173 180 178 180 183 169 187 203 190 161
111 105 125 23 202 174 163 209 10 87 148 186 255 264 246 158 172 153 130 105 101 136 191 235 217 197 181 170 174 180 182 179 184 175 178 178 180 180 181 182 200 208 206 194
202 109 137 192 55 24 328 248 177 134 232 206 149 270 216 167 131 128 155 143 121 157 226 230 252 232 187 179 173 181 182 178 179 169 170 178 177 177 184 196 208 205 212 221
202 191 87 347 5 11 214 207 252 87 95 199 145 258 197 114 138 174 181 139 203 282 256 249 244 259 212 180 173 177 182 182 173 162 171 177 185 182 193 203 206 200 186 198
114 91 171 184 179 123 186 202 192 147 133 212 223 257 236 197 194 184 192 189 48 1 326 211 297 255 259 190 174 174 175 173 178 170 171 181 187 191 195 200 197 197 193 188
127 181 118 260 139 150 192 177 186 191 212 183 222 232 225 256 111 179 186 97 7 24 24 22 259 257 251 210 168 170 169 157 166 175 176 190 194 190 185 196 200 202 202 207
3 151 113 311 189 204 237 208 199 214 233 260 258 270 236 167 96 92 60 31 9 16 26 5 343 249 254 216 170 162 161 161 160 178 191 190 183 182 190 194 205 213 225 225
146 133 110 254 322 212 287 193 198 198 204 211 220 239 156 179 126 86 35 29 15 8 21 0 348 278 185 165 147 160 149 135 160 188 192 173 166 174 191 213 222 234 238 236
143 135 122 172 28 269 251 134 190 215 234 221 267 234 139 130 111 98 71 67 50 50 30 39 27 46 32 47 55 102 111 106 110 95 56 46 56 51 32 18 337 314 304 263
42 133 140 148 203 297 201 183 161 170 256 215 221 239 163 128 99 85 64 66 78 57 55 60 56 50 38 25 44 62 53 55 53 37 38 27 18 15 10 357 334 311 307 286
46 32 125 142 172 221 236 174 138 124 284 290 210 212 161 130 159 211 104 88 72 63 57 58 53 51 39 19 48 64 51 48 38 20 9 5 4 2 351 328 316 291 292 286
129 104 201 188 223 280 192 154 117 109 243 309 112 147 133 137 171 129 106 89 77 60 66 73 65 57 40 20 53 63 58 42 13 359 351 0 356 339 320 323 330 315 308 297
161 158 179 155 168 262 152 87 176 194 22 102 52 74 96 107 103 97 90 78 68 64 49 67 72 59 43 31 47 65 50 17 1 351 353 348 336 333 329 327 319 312 306 295
206 183 177 187 208 220 182 85 96 90 142 114 104 78 107 119 120 111 95 86 72 52 56 50 78 80 42 40 41 54 37 11 354 347 344 332 327 328 341 321 309 303 293 301
263 187 147 93 265 180 169 73 74 64 97 71 77 82 81 104 112 117 119 115 100 78 60 39 66 60 52 38 50 49 26 2 352 349 340 336 344 345 331 323 310 316 315 314
187 130 157 266 175 102 158 146 136 109 102 97 73 63 89 104 98 106 100 88 77 73 56 49 47 46 40 29 34 34 16 5 358 344 333 342 338 328 325 314 313 312 298 298
189 170 170 209 174 133 79 111 131 130 129 123 114 91 61 84 100 103 92 79 71 68 51 54 50 44 28 21 15 15 9 9 0 347 343 335 334 324 321 323 316 313 312 315